Showing default

JUPITER 3 (ECHOSTAR 24), 57479

Orbit data source: Space-Track

JUPITER 3 (ECHOSTAR 24), 57479 is an American payload satellite in GEO that was launched on Sat, 29 Jul 2023 UTC via an FALCON HEAVY launch vehicle from the Air Force Eastern Test Range (AFETR). Payload-class satellites include a variety of spacecraft equipped with specific instruments for various scientific and technological missions. These include communications satellites like Starlink; space stations such as the ISS; scientific satellites like the Hubble; Earth observation satellites from companies like Planet Labs, Umbra, and HawkEye 360; GPS; miniature CubeSats for education and research; and military/defense satellites.

Loading next visibility...
Identifier
57479, 2023-108A
Orbit
GEO
Last TLE update
1 day ago
Origin
Manufacturer
Maxar Space Sol
Mission
Operational Commercial Communications
Bus & Motor
SSL-1300, SPT-100
Mass
9,200 kg wet, ~5,817 kg dry
Launch date (UTC)
2023-07-29 (2 years ago)
Launch vehicle
FALCON HEAVY
Launch site
Air Force Eastern Test Range (AFETR)
Object type
Payload
Rocket body
Debris
Shape & HBR
Box + 2 Pan, 38.7 m
Radar Cross Section
56.895 m², Large (>1 m²)

Expand to show TLE details & history

TLE from 1 day ago
0 JUPITER 3 (ECHOSTAR 24)
1 57479U 23108A   25172.51469223 -.00000139  00000-0  00000-0 0  9999
2 57479   0.0227   6.7633 0001423  86.2924 266.9606  1.00270707  7030
Epoch: 2025-06-21T12:21Z
TLE epoch observation values (Epoch: 2025-06-21T12:21:09.408Z)
Latitude
-0.00004°
Longitude
-95.24387°
Altitude
35,786.7 km
Speed
3.075 km/s
True Right ascension
23h 59m 59s
True Declination
0° 00' 00"
Sunlit
Object was in daylight at epoch
Visualization orbit readout
Latitude
0.02983°
Longitude
-55.11229°
Altitude
35,782.781 km
Speed
3.075 km/s
Apparent Right ascension
02h 45m 40s
Apparent Declination
-6° 11' 16"
Sunlit
Object is in daylight
Visualization observer readout
Local Sidereal Time
02:01:00
Azimuth
164.799° S
Elevation
42.759°
Doppler factor
1
Orbital elements
Apogee altitude
35,793.968 km
Perigee altitude
35,781.967 km
Semi-major axis
42,166.105 km
Eccentricity
0.00014
Inclination
0.0227°
RAAN
6.7633°
Arg. of periapsis
86.2924°
True anomaly
Unknown
Mean anomaly
266.9606°
Eccentric anomaly
Unknown
Mean motion
0.25067 °/min
Orbital period
1,436.17 mins
BSTAR
0
Loading historical data...
57479 neighbors
Loading maneuver chart data...
Loading SW <> Apogee altitude chart data...
Loading historical data...
Loading historical data...
Loading historical data...
Loading historical data...
Loading historical data...
Loading historical data...
Loading historical data...
Other satellites on launch #108 in the year 2023 (2023-07-29 UTC)

JUPITER 3 (ECHOSTAR 24) Visibility forecast

Observer location: undefined°, undefined°

Span
Click to sort rows by Start time (UTC) header in descending order
Start Az.
Max El. time (UTC)
Max El. Az.
Max El.
End time (UTC)
End Az.
1440 mins2025-06-22 14:57:18.289Z164.805° S2025-06-22 18:40:18.289Z164.778° S34.174°2025-06-23 14:57:18.289Z164.805° S
|